Flight Track Log - Related Links

Times and Time Zones

All times are in EDT time to prevent confusion due to time zone crossing. See the SWA2009 flight status page for this flight to view local times or setup timezone preferences in your user account.

Time Position Orientation Groundspeed Altitude Reporting Facility
EDT Latitude Longitude Course Direction KTS MPH feet Rate Location/Type
Sat 20:50:05 33.5744 -117.8983 192° South 185 213 4,100  Level Los Angeles Center
Sat 20:51:06 33.5125 -117.9356 207° Southwest 241 277 7,400 3,317 Climbing Los Angeles Center
Sat 20:52:08 33.4433 -117.9842 210° Southwest 275 316 10,900 3,048 Climbing Los Angeles Center
Sat 20:53:10 33.3628 -118.0417 211° Southwest 319 367 13,700 2,878 Climbing Los Angeles Center
Sat 20:54:00 33.3898 -118.4282 337° Northwest  Level FlightAware Approximate
Sat 20:54:11 33.3375 -118.1522 255° West 358 412 16,800  Level Los Angeles Center
Sat 20:55:13 33.3633 -118.2686 285° West 365 420 20,100 2,903 Climbing Los Angeles Center
Sat 20:56:15 33.4353 -118.3622 313° West 376 433 22,800 2,537 Climbing Los Angeles Center
Sat 20:57:16 33.5108 -118.4611 313° West 388 447 25,300 2,341 Climbing Los Angeles Center
Sat 20:58:18 33.5911 -118.5636 313° West 408 470 27,600 2,081 Climbing Los Angeles Center
Sat 20:59:20 33.6722 -118.6694 313° West 422 486 29,600 2,195 Climbing Los Angeles Center
Sat 21:00:21 33.7722 -118.7967 313° West 430 495 32,100 2,293 Climbing Los Angeles Center
Sat 21:01:23 33.8536 -118.9042 312° West 433 498 34,300 1,887 Climbing Los Angeles Center
Sat 21:02:25 33.9331 -119.0089 312° West 428 493 36,000 829 Climbing Los Angeles Center
Sat 21:03:26 34.0125 -119.1128 313° West 422 486 36,000  Level Los Angeles Center
Sat 21:04:28 34.0914 -119.2175 312° West 422 486 36,000  Level Los Angeles Center
Sat 21:05:29 34.1700 -119.3203 313° West 419 482 36,000  Level Los Angeles Center
Sat 21:06:30 34.2331 -119.4031 313° West 419 482 36,000  Level Los Angeles Center
Sat 21:07:32 34.3247 -119.5269 312° West 415 478 36,000  Level Los Angeles Center
Sat 21:08:34 34.4169 -119.6506 312° West 412 474 36,000  Level Los Angeles Center
Sat 21:09:35 34.4953 -119.7553 312° West 417 480 36,000  Level Los Angeles Center
Sat 21:10:37 34.5881 -119.8397 323° Northwest 418 481 36,000  Level Los Angeles Center
Sat 21:11:38 34.6778 -119.9100 327° Northwest 422 486 36,000  Level Los Angeles Center
Sat 21:12:40 34.7742 -119.9900 326° Northwest 423 487 36,000  Level Los Angeles Center
Sat 21:13:54 34.9083 -120.1011 326° Northwest 420 483 36,000  Level Los Angeles Center
Sat 21:14:55 35.0031 -120.1811 325° Northwest 419 482 36,000  Level Los Angeles Center
Sat 21:16:09 35.0992 -120.2600 326° Northwest 417 480 36,000  Level Los Angeles Center
Sat 21:17:11 35.2122 -120.3550 326° Northwest 413 475 36,000  Level Los Angeles Center
Sat 21:18:12 35.3053 -120.4344 325° Northwest 412 474 36,000  Level Los Angeles Center
Sat 21:19:05 35.3989 -120.5097 327° Northwest 411 473 36,000  Level Oakland Center
Sat 21:20:06 35.4925 -120.5878 326° Northwest 407 468 36,000  Level Oakland Center
Sat 21:21:07 35.5867 -120.6667 326° Northwest 410 472 36,000  Level Oakland Center
Sat 21:22:08 35.6797 -120.7481 325° Northwest 411 473 36,000  Level Oakland Center
Sat 21:23:09 35.7733 -120.8256 326° Northwest 407 468 36,000  Level Oakland Center
Sat 21:24:09 35.8667 -120.9072 325° Northwest 411 473 36,000 -1,140 Level Oakland Center
Sat 21:25:10 35.9603 -120.9878 325° Northwest 410 472 33,700 -2,557 Descending Oakland Center
Sat 21:26:11 36.0533 -121.0697 325° Northwest 410 472 30,800 -2,656 Descending Oakland Center
Sat 21:27:12 36.1444 -121.1475 325° Northwest 400 460 28,300 -2,410 Descending Oakland Center
Sat 21:28:13 36.2328 -121.2250 325° Northwest 387 445 25,900 -2,459 Descending Oakland Center
Sat 21:29:14 36.3314 -121.3108 325° Northwest 369 425 23,300 -2,361 Descending Oakland Center
Sat 21:30:15 36.4119 -121.3792 326° Northwest 350 403 21,100 -1,721 Descending Oakland Center
Sat 21:31:16 36.4881 -121.4464 325° Northwest 335 386 19,800 -1,672 Descending Oakland Center
Sat 21:32:17 36.5628 -121.5117 325° Northwest 326 375 17,700 -2,115 Descending Oakland Center
Sat 21:33:18 36.6414 -121.5558 336° Northwest 309 356 15,500 -2,066 Descending Oakland Center
Sat 21:34:19 36.7322 -121.5536 North 313 360 13,500 -1,967 Descending Oakland Center
Sat 21:35:20 36.8175 -121.5561 359° North 308 354 11,500 -1,574 Descending Oakland Center
Sat 21:36:21 36.8931 -121.5811 345° North 297 342 10,300 -1,230 Descending Oakland Center
Sat 21:37:22 36.9614 -121.6169 337° Northwest 278 320 9,000 -1,377 Descending Oakland Center
Sat 21:38:23 37.0258 -121.6492 338° Northwest 256 295 7,500 -1,869 Descending Oakland Center
Sat 21:39:24 37.1056 -121.6861 340° North 254 292 5,200 -1,485 Descending Oakland Center
Sat 21:40:04 37.1500 -121.7000 346° North 233 268 5,000 -295 Descending Northern Cal TRACON
Sat 21:40:25 37.1669 -121.7144 326° Northwest 246 283 4,900 -878 Descending Oakland Center
Sat 21:41:26 37.2100 -121.7594 320° Northwest 222 255 3,800 -992 Descending Oakland Center
Sat 21:42:26 37.2461 -121.8061 314° West 201 231 2,900 -942 Descending Oakland Center
Sat 21:43:27 37.2803 -121.8414 321° Northwest 179 206 1,900 -836 Descending Oakland Center
Sat 21:44:28 37.3083 -121.8717 319° Northwest 153 176 1,200 -689 Descending Oakland Center
Sat 21:45:29 37.3333 -121.8997 318° Northwest 135 155 500 9,246 Descending Oakland Center
Sat 21:46:30 37.3603 -121.9275 321° Northwest 128 147 20,000 19,180 Climbing Oakland Center
Sat 21:48:00 37.3627 -121.9291 North  Level Estimated

Login

Don't have an account? Register now (free) for customized features, flight alerts, and more!